#timestamp,LO_Frequency,Hit,StdDev 
1519768815.9,286046998.5,N
1519768835.7,286046998.9,N
1519768855.5,286047001.0,N
1519768875.4,286046999.9,N
1519768895.2,286047002.0,N
1519768915.1,286046998.9,N
1519768916.0,286046998.9,N
1519768935.8,286046999.7,N
1519768955.6,286047000.4,N
1519768975.5,286047001.2,N
1519768995.3,286046998.8,N
1519769015.1,286047001.1,N
1519769035.9,286047002.8,N
1519769055.7,286046999.1,N
1519769075.6,286046999.4,N
1519769095.4,286047001.5,N
1519769115.2,286046999.7,N
1519769135.1,286047000.0,N
1519769136.0,286047000.0,N
1519769155.8,286047000.8,N
1519769175.7,286046998.3,N
1519769195.5,286046996.6,N
1519769215.3,286047000.3,N
1519769235.2,286047001.2,N
1519769255.0,286046996.7,N
1519769255.9,286046996.7,N
1519769275.7,286046996.7,N
1519769295.6,286046998.4,N
1519769315.4,286047004.0,N
1519769335.3,286047002.5,N
1519769355.1,286046999.1,N
1519769356.0,286046999.1,N
1519769375.8,286046998.9,N
1519769395.7,286046997.9,N
1519769415.5,286046996.7,N
1519769435.4,286047002.8,N
1519769455.2,286047005.8,N
1519769475.0,286047001.6,N
1519769475.9,286047001.6,N
1519769495.8,286047001.5,N
1519769515.6,286047000.0,N
1519769535.4,286046999.4,N
1519769555.3,286047002.8,N
1519769575.1,286047002.9,N
1519769595.9,286047000.0,N
1519769615.7,286047001.0,N
1519769635.5,286047000.4,N
1519769655.4,286047000.1,N
1519769675.2,286047002.6,N
1519769695.0,286047005.6,N
1519769695.9,286047005.6,N
1519769715.8,286047002.4,N
1519769735.6,286047001.5,N
1519769755.5,286047004.4,N
1519769775.3,286047001.9,N
1519769795.1,286047000.2,N
1519769815.9,286047000.7,N
1519769835.7,286047000.4,N
1519769855.6,286046998.1,N
1519769875.4,286046997.0,N
1519769895.2,286046997.7,N
1519769915.1,286046999.2,N
1519769916.0,286046999.2,N
1519769935.8,286047000.4,N
1519769955.6,286046999.4,N
1519769975.5,286046996.6,N
1519769995.3,286046995.5,N
1519770015.1,286046995.0,N
1519770035.9,286046996.3,N
1519770055.7,286046997.5,N
1519770075.6,286046994.9,N
1519770095.4,286046993.9,N
1519770115.2,286046993.4,N
1519770135.1,286046994.8,N
1519770136.0,286046994.8,N
1519770155.8,286046992.0,N
1519770175.7,286046992.9,N
1519770195.5,286046990.1,N
1519770215.3,286046990.5,N
1519770235.2,286046990.1,N
1519770255.9,286046992.3,N
1519770275.7,286046990.9,N
1519770295.6,286046991.3,N
1519770315.4,286046990.4,N
1519770335.2,286046989.6,N
1519770355.1,286046987.3,Y
1519770356.0,286046987.3,P
1519770375.8,286046993.6,N
1519770395.7,286046993.5,N
1519770415.5,286046993.9,N
1519770435.3,286046992.4,N
1519770455.2,286046992.8,N
1519770475.0,286046992.4,Y
1519770475.9,286046992.4,P
1519770495.8,286046998.6,P
1519770515.6,286047001.2,N
1519770535.4,286046997.1,N
1519770555.3,286046994.9,N
1519770575.1,286046996.8,N
1519770595.9,286046995.0,N
1519770615.7,286046997.6,N
1519770635.5,286046995.4,N
1519770655.4,286046994.1,N
1519770675.2,286046996.1,N
1519770695.0,286046993.3,N
1519770695.9,286046993.3,N
1519770715.8,286046996.2,N
1519770735.6,286046995.2,N
1519770755.5,286046996.4,N
1519770775.3,286046995.0,N
1519770795.1,286046995.1,N
1519770815.9,286046997.4,N
1519770835.7,286046994.9,N
1519770855.5,286046999.0,N
1519770875.4,286046997.9,N
1519770895.2,286046995.1,N
1519770915.0,286046997.8,N
1519770916.0,286046997.8,N
1519770935.8,286046997.4,N
1519770955.6,286046995.1,N
1519770975.5,286046995.7,N
1519770995.3,286046998.0,N
1519771015.1,286046996.7,N
1519771035.9,286046999.6,N
1519771055.7,286046996.7,N
1519771075.5,286046997.9,N
1519771095.4,286046996.8,N
1519771115.2,286046998.2,N
1519771135.1,286046996.8,N
1519771136.0,286046996.8,N
1519771155.8,286047000.3,N
1519771175.6,286046998.4,N
1519771195.5,286046997.0,N
1519771215.3,286047001.2,N
1519771235.2,286046997.2,N
1519771255.9,286046995.3,N
1519771275.7,286046998.8,N
1519771295.6,286047001.2,N
1519771315.4,286046997.1,N
1519771335.2,286046998.3,N
1519771355.1,286046998.9,N
1519771356.0,286046998.9,N
1519771375.8,286046999.3,N
1519771395.7,286046998.8,N
1519771415.5,286046996.6,N
1519771435.3,286046999.4,N
1519771455.2,286046998.5,N
1519771475.0,286047000.8,N
1519771475.9,286047000.8,N
1519771495.7,286047001.1,N
1519771515.6,286046998.4,N
1519771535.4,286046998.2,N
1519771555.3,286047000.2,N
1519771575.1,286046999.9,N
1519771576.0,286046999.9,N
1519771595.8,286047002.0,N
1519771615.7,286047004.1,N
1519771635.5,286047002.1,N
1519771655.3,286047002.3,N
1519771675.2,286047002.0,N
1519771695.0,286047001.9,N
1519771695.9,286047001.9,N
1519771715.8,286047002.6,N
1519771735.6,286047002.8,N
1519771755.4,286047000.6,N
1519771775.3,286047001.1,N
1519771795.1,286047000.2,N
1519771815.8,286047001.9,N
1519771835.7,286047001.8,N
1519771855.5,286047002.0,N
1519771875.4,286047002.9,N
1519771895.2,286047001.7,N
1519771915.0,286047002.0,N
1519771915.9,286047002.0,N
1519771935.8,286047004.0,N
1519771955.6,286047002.9,N
1519771975.4,286047004.1,N
1519771995.3,286047002.0,N
1519772015.1,286047002.5,N
1519772035.9,286047003.4,N
1519772055.7,286047003.1,N
1519772075.5,286047005.0,Y
1519772095.4,286046999.9,P
1519772115.2,286047000.2,N
1519772135.1,286047001.4,N
1519772136.0,286047001.4,N
1519772155.8,286047002.1,N
1519772175.6,286046999.7,N
1519772195.5,286047000.5,N
1519772215.3,286047000.6,N
1519772235.1,286047000.6,N
1519772255.9,286046998.4,N
1519772275.7,286046996.6,Y
1519772295.6,286046996.9,P
1519772315.4,286046998.4,N
1519772335.2,286047000.5,N
1519772355.1,286046999.5,N
1519772356.0,286046999.5,N
1519772375.8,286046999.4,N
1519772395.6,286046998.6,N
